Location: Newark
(60.6561°N, 46.5772°E)
Time: 04:12:34
(UTC+00:00)

Vanguard 1 Rocket - All Passes

Search period start: 20 October 2019 00:00
Search period end: 30 October 2019 00:00
Orbit: 650 x 4226 km, 34.3° (Epoch: 17 October)

Date Brightness Start Highest point End Pass type
(mag) Time Alt. Az. Time Alt. Az. Time Alt. Az.
20 Oct - 06:11:37 10° S 06:21:03 18° SE 06:33:05 10° ESE daylight
20 Oct - 08:31:06 10° SW 08:45:43 30° SSE 09:05:07 10° ESE daylight
20 Oct - 10:55:20 10° WSW 11:12:23 31° SSW 11:32:21 10° SE daylight
20 Oct - 13:23:56 10° WSW 13:38:37 20° SW 13:53:39 10° S daylight
21 Oct - 05:08:06 10° SE 05:10:22 10° SE 05:12:46 10° ESE daylight
21 Oct - 07:21:20 10° SSW 07:33:42 25° SSE 07:50:38 10° ESE daylight
21 Oct - 09:43:50 10° SW 09:59:39 32° S 10:19:50 10° SE daylight
21 Oct - 12:10:09 10° WSW 12:26:19 25° SSW 12:44:08 10° SSE daylight
21 Oct - 14:46:37 10° WSW 14:51:15 11° SW 14:55:53 10° SW visible
22 Oct - 06:12:41 10° S 06:22:19 19° SE 06:35:09 10° ESE daylight
22 Oct - 08:33:06 10° SW 08:47:10 30° S 09:06:22 10° ESE daylight
22 Oct - 10:57:40 10° WSW 11:13:45 29° SSW 11:33:02 10° SSE daylight
22 Oct - 13:27:16 10° WSW 13:39:39 17° SW 13:52:36 10° SSW daylight
23 Oct - 05:06:32 10° SSE 05:11:34 12° SE 05:17:27 10° ESE daylight
23 Oct - 07:23:09 10° SSW 07:35:09 26° SSE 07:52:04 10° ESE daylight
23 Oct - 09:46:05 10° WSW 10:01:07 30° S 10:20:44 10° SE daylight
23 Oct - 12:12:54 10° WSW 12:27:33 22° SSW 12:43:59 10° S daylight
24 Oct - 06:14:10 10° S 06:23:43 21° SE 06:36:55 10° ESE daylight
24 Oct - 08:35:16 10° SW 08:48:41 29° S 09:07:27 10° SE daylight
24 Oct - 11:00:12 10° WSW 11:15:07 26° SSW 11:33:22 10° SSE daylight
24 Oct - 13:31:44 10° WSW 13:40:41 13° SW 13:50:06 10° SSW daylight
25 Oct - 05:06:55 10° SSE 05:12:54 14° SE 05:20:21 10° ESE daylight
25 Oct - 07:25:11 10° SSW 07:36:43 26° SSE 07:53:20 10° ESE daylight
25 Oct - 09:48:30 10° WSW 10:02:38 28° S 10:21:23 10° SE daylight
25 Oct - 12:16:06 10° WSW 12:28:47 19° SW 12:43:10 10° S daylight
26 Oct - 06:15:56 10° SSW 06:25:16 21° SSE 06:38:30 10° ESE daylight
26 Oct - 08:37:36 10° SW 08:50:19 28° S 09:08:19 10° SE daylight
26 Oct - 11:02:59 10° WSW 11:16:33 23° SSW 11:33:16 10° SSE daylight
27 Oct - 05:08:02 10° S 05:14:24 15° SE 05:22:38 10° ESE daylight
27 Oct - 07:27:24 10° SW 07:38:22 26° SSE 07:54:27 10° ESE daylight
27 Oct - 09:51:08 10° WSW 10:04:13 26° SSW 10:21:43 10° SSE daylight
27 Oct - 12:20:03 10° WSW 12:30:03 15° SW 12:41:17 10° SSW daylight
28 Oct - 06:17:57 10° SSW 06:26:56 22° SSE 06:39:55 10° ESE daylight
28 Oct - 08:40:07 10° SW 08:52:01 26° S 09:08:59 10° SE daylight
28 Oct - 11:06:09 10° WSW 11:18:01 20° SSW 11:32:34 10° S daylight
29 Oct - 05:09:37 10° S 05:16:02 16° SE 05:24:35 10° ESE daylight
29 Oct - 07:29:48 10° SW 07:40:09 25° S 07:55:24 10° SE daylight
29 Oct - 09:53:59 10° WSW 10:05:51 23° SSW 10:21:39 10° SSE daylight
29 Oct - 12:26:07 10° WSW 12:31:21 11° SW 12:36:57 10° SSW daylight
